BVG0299 EGLL-EGPF

Flight info

Callsign BVG0299
Flight time N/A
Altitude 31000
Route UMLAT T418 WELIN T420 TNT UN57 POL UN601 RIBEL
Aircraft B738/M-SDE2E3FGHIRWXY/LB1

Departure

Time 2026-04-30 22:05
Airport London Heathrow Airport (EGLL)

Arrival

Time N/A
Airport Glasgow Airport (EGPF)
Time Latitude Longitude Altitude Speed Heading
2026-04-30 21:11 51.47184 -0.44462 91 ft 0 kts 146°
2026-04-30 21:33 51.47185 -0.44462 91 ft 1 kts 146°
2026-04-30 21:37 51.47217 -0.44497 91 ft 3 kts 146°
2026-04-30 21:37 51.47234 -0.44515 91 ft 3 kts 146°
2026-04-30 21:37 51.47251 -0.44533 91 ft 2 kts 146°
2026-04-30 21:37 51.47233 -0.44527 91 ft 3 kts 202°
2026-04-30 21:38 51.47220 -0.44544 91 ft 2 kts 243°
2026-04-30 21:38 51.47223 -0.44566 91 ft 2 kts 315°
2026-04-30 21:38 51.47239 -0.44567 91 ft 2 kts 30°
2026-04-30 21:38 51.47250 -0.44547 91 ft 2 kts 50°
2026-04-30 21:39 51.47259 -0.44529 91 ft 2 kts 50°
2026-04-30 21:39 51.47266 -0.44515 91 ft 1 kts 50°
2026-04-30 21:39 51.47272 -0.44504 91 ft 2 kts 50°
2026-04-30 21:39 51.47278 -0.44493 91 ft 1 kts 50°
2026-04-30 21:40 51.47284 -0.44481 91 ft 1 kts 50°
2026-04-30 21:40 51.47290 -0.44470 91 ft 1 kts 55°
2026-04-30 21:40 51.47297 -0.44453 91 ft 4 kts 55°
2026-04-30 21:40 51.47328 -0.44382 91 ft 12 kts 55°
2026-04-30 21:41 51.47408 -0.44350 91 ft 15 kts 335°
2026-04-30 21:41 51.47474 -0.44462 91 ft 14 kts 292°
2026-04-30 21:41 51.47517 -0.44592 91 ft 13 kts 290°
2026-04-30 21:41 51.47530 -0.44732 91 ft 12 kts 269°
2026-04-30 21:42 51.47529 -0.44866 91 ft 12 kts 269°
2026-04-30 21:42 51.47528 -0.44997 91 ft 11 kts 269°
2026-04-30 21:42 51.47527 -0.45088 91 ft 8 kts 269°
2026-04-30 21:42 51.47526 -0.45176 91 ft 7 kts 269°
2026-04-30 21:43 51.47525 -0.45261 91 ft 7 kts 269°
2026-04-30 21:43 51.47525 -0.45314 91 ft 7 kts 269°
2026-04-30 21:43 51.47524 -0.45414 91 ft 7 kts 269°
2026-04-30 21:43 51.47524 -0.45466 91 ft 7 kts 269°
2026-04-30 21:44 51.47523 -0.45560 91 ft 6 kts 269°
2026-04-30 21:44 51.47522 -0.45631 91 ft 6 kts 269°
2026-04-30 21:44 51.47522 -0.45698 91 ft 6 kts 269°
2026-04-30 21:44 51.47521 -0.45765 91 ft 6 kts 269°
2026-04-30 21:45 51.47521 -0.45829 91 ft 5 kts 269°
2026-04-30 21:45 51.47520 -0.45893 91 ft 5 kts 269°
2026-04-30 21:45 51.47520 -0.45952 91 ft 5 kts 269°
2026-04-30 21:45 51.47519 -0.46010 91 ft 5 kts 269°
2026-04-30 21:46 51.47519 -0.46064 91 ft 5 kts 269°
2026-04-30 21:46 51.47518 -0.46117 91 ft 5 kts 269°
2026-04-30 21:46 51.47518 -0.46169 91 ft 4 kts 269°
2026-04-30 21:46 51.47517 -0.46218 91 ft 4 kts 269°
2026-04-30 21:47 51.47517 -0.46265 91 ft 4 kts 269°
2026-04-30 21:47 51.47516 -0.46311 91 ft 4 kts 269°
2026-04-30 21:47 51.47516 -0.46353 91 ft 4 kts 269°
2026-04-30 21:47 51.47516 -0.46394 91 ft 3 kts 269°
2026-04-30 21:48 51.47515 -0.46419 91 ft 3 kts 268°
2026-04-30 21:48 51.47515 -0.46448 91 ft 3 kts 268°
2026-04-30 21:48 51.47514 -0.46487 91 ft 3 kts 268°
2026-04-30 21:48 51.47514 -0.46517 91 ft 2 kts 268°
2026-04-30 21:49 51.47513 -0.46547 91 ft 2 kts 268°
2026-04-30 21:49 51.47512 -0.46588 91 ft 5 kts 268°
2026-04-30 21:49 51.47511 -0.46664 91 ft 8 kts 268°
2026-04-30 21:49 51.47510 -0.46734 91 ft 10 kts 268°
2026-04-30 21:50 51.47508 -0.46859 91 ft 11 kts 268°
2026-04-30 21:50 51.47505 -0.47025 91 ft 11 kts 268°
2026-04-30 21:50 51.47503 -0.47143 91 ft 10 kts 268°
2026-04-30 21:50 51.47501 -0.47257 91 ft 10 kts 268°
2026-04-30 21:51 51.47499 -0.47365 91 ft 9 kts 268°
2026-04-30 21:51 51.47498 -0.47436 91 ft 9 kts 268°
2026-04-30 21:51 51.47496 -0.47537 91 ft 9 kts 268°
2026-04-30 21:51 51.47494 -0.47631 91 ft 8 kts 268°
2026-04-30 21:52 51.47489 -0.47752 91 ft 8 kts 242°
2026-04-30 21:52 51.47461 -0.47787 91 ft 8 kts 181°
2026-04-30 21:52 51.47407 -0.47785 91 ft 7 kts 185°
2026-04-30 21:52 51.47357 -0.47793 91 ft 7 kts 185°
2026-04-30 21:53 51.47308 -0.47801 91 ft 7 kts 185°
2026-04-30 21:53 51.47262 -0.47808 91 ft 6 kts 185°
2026-04-30 21:53 51.47217 -0.47815 91 ft 6 kts 185°
2026-04-30 21:53 51.47172 -0.47822 91 ft 6 kts 185°
2026-04-30 21:54 51.47133 -0.47828 91 ft 6 kts 185°
2026-04-30 21:54 51.47093 -0.47834 91 ft 6 kts 185°
2026-04-30 21:54 51.47053 -0.47840 91 ft 6 kts 185°
2026-04-30 21:54 51.47015 -0.47846 91 ft 5 kts 185°
2026-04-30 21:55 51.46977 -0.47852 91 ft 5 kts 185°
2026-04-30 21:55 51.46949 -0.47856 91 ft 5 kts 185°
2026-04-30 21:55 51.46914 -0.47862 91 ft 5 kts 185°
2026-04-30 21:55 51.46880 -0.47867 91 ft 5 kts 187°
2026-04-30 21:56 51.46851 -0.47873 91 ft 4 kts 187°
2026-04-30 21:56 51.46821 -0.47879 91 ft 4 kts 189°
2026-04-30 21:56 51.46792 -0.47890 91 ft 4 kts 194°
2026-04-30 21:56 51.46766 -0.47909 91 ft 4 kts 207°
2026-04-30 21:57 51.46748 -0.47940 91 ft 4 kts 237°
2026-04-30 21:57 51.46740 -0.47978 91 ft 3 kts 258°
2026-04-30 21:57 51.46738 -0.48016 91 ft 3 kts 267°
2026-04-30 21:57 51.46736 -0.48053 91 ft 3 kts 267°
2026-04-30 21:58 51.46736 -0.48088 91 ft 3 kts 270°
2026-04-30 21:58 51.46733 -0.48118 91 ft 3 kts 252°
2026-04-30 21:58 51.46724 -0.48145 91 ft 2 kts 232°
2026-04-30 21:58 51.46711 -0.48164 91 ft 2 kts 218°
2026-04-30 21:59 51.46697 -0.48177 91 ft 2 kts 200°
2026-04-30 21:59 51.46683 -0.48181 91 ft 2 kts 184°
2026-04-30 21:59 51.46669 -0.48182 91 ft 2 kts 184°
2026-04-30 22:00 51.46646 -0.48184 91 ft 1 kts 184°
2026-04-30 22:00 51.46629 -0.48186 91 ft 1 kts 184°
2026-04-30 22:00 51.46622 -0.48187 91 ft 1 kts 184°
2026-04-30 22:01 51.46598 -0.48194 91 ft 7 kts 194°
2026-04-30 22:01 51.46577 -0.48201 91 ft 1 kts 187°
2026-04-30 22:01 51.46548 -0.48203 91 ft 0 kts 174°
2026-04-30 22:03 51.46543 -0.48202 91 ft 3 kts 175°
2026-04-30 22:03 51.46495 -0.48194 91 ft 7 kts 168°
2026-04-30 22:03 51.46476 -0.48164 91 ft 4 kts 85°
2026-04-30 22:03 51.46477 -0.48124 91 ft 2 kts 89°
2026-04-30 22:04 51.46477 -0.48103 91 ft 4 kts 89°
2026-04-30 22:04 51.46481 -0.47669 91 ft 76 kts 89°
2026-04-30 22:04 51.46494 -0.44573 177 ft 185 kts 89°
2026-04-30 22:05 51.46502 -0.42552 1225 ft 160 kts 89°
2026-04-30 22:05 51.46531 -0.40867 2087 ft 159 kts 82°
2026-04-30 22:05 51.46997 -0.39106 2328 ft 179 kts 58°
2026-04-30 22:05 51.47717 -0.37444 2615 ft 197 kts 54°
2026-04-30 22:06 51.48576 -0.35538 2981 ft 215 kts 55°
2026-04-30 22:06 51.50190 -0.31554 4403 ft 216 kts 56°
2026-04-30 22:06 51.50991 -0.29503 4971 ft 221 kts 56°
2026-04-30 22:07 51.51818 -0.27373 5569 ft 227 kts 55°
2026-04-30 22:07 51.52679 -0.25146 5966 ft 235 kts 55°
2026-04-30 22:07 51.53546 -0.22899 6043 ft 238 kts 55°
2026-04-30 22:07 51.54495 -0.20716 5985 ft 234 kts 41°
2026-04-30 22:08 51.55865 -0.19463 5982 ft 222 kts 11°
2026-04-30 22:08 51.57268 -0.19446 6000 ft 215 kts 344°
2026-04-30 22:08 51.58618 -0.20317 6193 ft 211 kts 326°
2026-04-30 22:08 51.59854 -0.21561 6458 ft 214 kts 324°
2026-04-30 22:09 51.61130 -0.22871 6711 ft 215 kts 323°
2026-04-30 22:09 51.62390 -0.24168 6962 ft 216 kts 323°
2026-04-30 22:09 51.63648 -0.25461 7210 ft 217 kts 323°
2026-04-30 22:09 51.64893 -0.26875 7438 ft 214 kts 311°
2026-04-30 22:10 51.65604 -0.28910 7693 ft 210 kts 285°
2026-04-30 22:10 51.65878 -0.31206 7967 ft 211 kts 278°
2026-04-30 22:10 51.66078 -0.33520 8211 ft 211 kts 276°
2026-04-30 22:10 51.66217 -0.35871 8461 ft 212 kts 274°
2026-04-30 22:11 51.66398 -0.40667 8967 ft 213 kts 272°
2026-04-30 22:11 51.66472 -0.42989 9211 ft 214 kts 272°
2026-04-30 22:11 51.66545 -0.45415 9556 ft 216 kts 272°
2026-04-30 22:12 51.66616 -0.47877 10120 ft 217 kts 272°
2026-04-30 22:12 51.66680 -0.50186 10410 ft 231 kts 272°
2026-04-30 22:12 51.66758 -0.53016 10634 ft 251 kts 272°
2026-04-30 22:12 51.66834 -0.55888 11306 ft 258 kts 272°
2026-04-30 22:13 51.66916 -0.58794 11706 ft 276 kts 273°
2026-04-30 22:13 51.67008 -0.61892 12002 ft 293 kts 272°
2026-04-30 22:13 51.67344 -0.65276 12256 ft 312 kts 289°
2026-04-30 22:13 51.68478 -0.68388 12504 ft 333 kts 308°
2026-04-30 22:14 51.70150 -0.70638 12767 ft 351 kts 326°
2026-04-30 22:14 51.71456 -0.71617 13034 ft 359 kts 338°
2026-04-30 22:14 51.73961 -0.72308 13669 ft 369 kts 356°
2026-04-30 22:14 51.76496 -0.71776 14247 ft 379 kts
2026-04-30 22:15 51.79132 -0.70869 14808 ft 382 kts
2026-04-30 22:15 51.81775 -0.70693 15401 ft 380 kts 354°
2026-04-30 22:15 51.84390 -0.71076 15967 ft 382 kts 350°
2026-04-30 22:15 51.87074 -0.71544 16535 ft 386 kts 351°
2026-04-30 22:16 51.89702 -0.71904 17069 ft 390 kts 352°
2026-04-30 22:16 51.92441 -0.72220 17610 ft 393 kts 352°
2026-04-30 22:17 52.00755 -0.73284 19128 ft 400 kts 348°
2026-04-30 22:17 52.03480 -0.74149 19603 ft 401 kts 342°
2026-04-30 22:17 52.08838 -0.76799 20507 ft 404 kts 338°
2026-04-30 22:18 52.11501 -0.78229 20934 ft 407 kts 339°
2026-04-30 22:18 52.16929 -0.81102 21755 ft 412 kts 339°
2026-04-30 22:19 52.22385 -0.84010 22518 ft 417 kts 337°
2026-04-30 22:19 52.25065 -0.85833 22885 ft 417 kts 331°
2026-04-30 22:19 52.30111 -0.90422 23584 ft 419 kts 326°
2026-04-30 22:20 52.32616 -0.92961 23923 ft 421 kts 325°
2026-04-30 22:20 52.37639 -0.98011 24561 ft 426 kts 326°
2026-04-30 22:20 52.40175 -1.00553 24865 ft 428 kts 326°
2026-04-30 22:21 52.42761 -1.03144 25167 ft 430 kts 326°
2026-04-30 22:21 52.45286 -1.05674 25451 ft 432 kts 326°
2026-04-30 22:21 52.47891 -1.08285 25733 ft 434 kts 326°
2026-04-30 22:21 52.50454 -1.10870 26000 ft 435 kts 326°
2026-04-30 22:22 52.53031 -1.13482 26262 ft 437 kts 326°
2026-04-30 22:22 52.55549 -1.16041 26509 ft 439 kts 325°
2026-04-30 22:22 52.58163 -1.18682 26763 ft 441 kts 326°
2026-04-30 22:22 52.60846 -1.21387 27031 ft 441 kts 326°
2026-04-30 22:23 52.63445 -1.24025 27407 ft 439 kts 326°
2026-04-30 22:23 52.65989 -1.26613 27728 ft 439 kts 326°
2026-04-30 22:23 52.68615 -1.29284 27984 ft 440 kts 326°
2026-04-30 22:23 52.71216 -1.31936 28346 ft 437 kts 326°
2026-04-30 22:24 52.73787 -1.34554 28641 ft 437 kts 326°
2026-04-30 22:24 52.76413 -1.37233 28882 ft 438 kts 325°
2026-04-30 22:24 52.79008 -1.39864 29226 ft 436 kts 326°
2026-04-30 22:24 52.81511 -1.42376 29480 ft 436 kts 326°
2026-04-30 22:25 52.84163 -1.45073 29722 ft 436 kts 326°
2026-04-30 22:25 52.86764 -1.47739 29977 ft 436 kts 325°
2026-04-30 22:25 52.91877 -1.53005 29996 ft 438 kts 325°
2026-04-30 22:26 52.99637 -1.61030 29997 ft 435 kts 325°
2026-04-30 22:27 53.04827 -1.66209 29997 ft 437 kts 330°
2026-04-30 22:27 53.13303 -1.71928 29997 ft 440 kts 336°
2026-04-30 22:28 53.21575 -1.77050 29996 ft 439 kts 336°
2026-04-30 22:29 53.32663 -1.83983 29997 ft 439 kts 336°
2026-04-30 22:31 53.52443 -1.96315 29997 ft 439 kts 336°
2026-04-30 22:32 53.66809 -2.05452 29997 ft 439 kts 336°
2026-04-30 22:33 53.81032 -2.14851 29997 ft 438 kts 335°
2026-04-30 22:35 53.95090 -2.24508 29997 ft 438 kts 335°
2026-04-30 22:36 54.08846 -2.35636 29997 ft 435 kts 327°
2026-04-30 22:37 54.19384 -2.45626 29997 ft 435 kts 328°
2026-04-30 22:37 54.24702 -2.50642 29587 ft 435 kts 328°
2026-04-30 22:38 54.29861 -2.55532 28988 ft 420 kts 328°
2026-04-30 22:38 54.34081 -2.59550 28480 ft 406 kts 328°
2026-04-30 22:39 54.36546 -2.61902 28176 ft 398 kts 328°
2026-04-30 22:39 54.43610 -2.68662 27270 ft 378 kts 327°
2026-04-30 22:40 54.50136 -2.74929 26393 ft 361 kts 327°
2026-04-30 22:41 54.56608 -2.81072 25487 ft 347 kts 328°
2026-04-30 22:41 54.60796 -2.85045 24882 ft 338 kts 327°
2026-04-30 22:42 54.68788 -2.92781 23678 ft 322 kts 327°
2026-04-30 22:43 54.72648 -2.96540 23076 ft 315 kts 327°
2026-04-30 22:43 54.76417 -3.00218 22475 ft 309 kts 327°
2026-04-30 22:44 54.80144 -3.03853 21869 ft 302 kts 327°
2026-04-30 22:45 54.87342 -3.10862 20664 ft 291 kts 326°
2026-04-30 22:45 54.90823 -3.14279 20064 ft 286 kts 326°
2026-04-30 22:46 54.94198 -3.17607 19471 ft 281 kts 326°
2026-04-30 22:47 55.00887 -3.24213 18264 ft 271 kts 326°
2026-04-30 22:47 55.04146 -3.27419 17661 ft 267 kts 326°
2026-04-30 22:48 55.07366 -3.30597 17061 ft 262 kts 326°
2026-04-30 22:49 55.11966 -3.35173 16228 ft 245 kts 326°
2026-04-30 22:49 55.16283 -3.39478 15331 ft 239 kts 326°
2026-04-30 22:50 55.22040 -3.45231 14124 ft 234 kts 326°
2026-04-30 22:51 55.24833 -3.48014 13478 ft 229 kts 326°
2026-04-30 22:51 55.27562 -3.50697 12826 ft 222 kts 326°
2026-04-30 22:52 55.28906 -3.52033 12496 ft 219 kts 326°
2026-04-30 22:52 55.31522 -3.54653 11840 ft 213 kts 325°
2026-04-30 22:53 55.34037 -3.57186 11192 ft 207 kts 325°
2026-04-30 22:53 55.36508 -3.59684 10540 ft 203 kts 325°
2026-04-30 22:53 55.37745 -3.60936 10208 ft 200 kts 325°
2026-04-30 22:54 55.40126 -3.63350 9558 ft 196 kts 325°
2026-04-30 22:55 55.43597 -3.66874 8595 ft 188 kts 324°
2026-04-30 22:55 55.45831 -3.69144 7937 ft 182 kts 324°
2026-04-30 22:56 55.47996 -3.71359 7384 ft 182 kts 324°
2026-04-30 22:56 55.51360 -3.74769 6347 ft 185 kts 326°
2026-04-30 22:57 55.53584 -3.76918 5690 ft 180 kts 331°
2026-04-30 22:57 55.55731 -3.79079 5028 ft 174 kts 328°
2026-04-30 22:58 55.57791 -3.81244 4367 ft 171 kts 329°
2026-04-30 22:59 55.60830 -3.84394 3374 ft 167 kts 330°
2026-04-30 22:59 55.63790 -3.87442 2443 ft 160 kts 330°